Location: Newark
(13.8117°N, 3.6025°W)
Time: 20:08:23
(UTC+00:00)

Explorer 11/Cluster Stage 4 - Pass Details

Date: 01 September 2019
Orbit: 467 x 1260 km, 28.8° (Epoch: 23 September)

Event Time Altitude Azimuth Distance (km) Brightness Sun altitude
Rises 02:30:33 0° 197° (SSW) 2,546 - -49.6°
Reaches altitude 10° 02:35:13 10° 145° (SE) 1,807 - -48.6°
Maximum altitude 02:35:16 10° 144° (SE) 1,809 - -48.6°
Drops below altitude 10° 02:35:23 10° 142° (SE) 1,813 - -48.6°
Sets 02:40:33 0° 93° (E) 2,946 - -47.5°
Exits shadow 02:40:45 - 92° (E) 3,011 10.1 -47.5°
